[[{"header":{"parameterUnit":"m.s-1","parameterCategory":1,"la1":30.2991,"la2":30.254,"lo1":-89.0895,"lo2":-89.0444,"dx":0.0017,"dy":0.0017,"nx":28,"ny":28,"refTime":"2022-12-02T09:00:00:Z","depth":0,"parameterNumber":2,"parameterNumberName":"U-component_of_WINDS"},"data":[0,0,0,0,0,0,0,0,0,0,0,0,0,0,0,0,0,0,0,0,0,0,0,0,0,0,0,0,0,0,0,0,0,0,0,0,0,0,0,0,0,0,0,0,0,0,0,0,0,0,0,0,0,0,0,0,0,0,0.1994,0.1995,0,0.2111,0.2112,0.2113,0.2147,0.2146,0.2146,0.2145,0.2269,0.2273,0.2277,0,0,0,0,0,0,0,0,0,0,0,0,0,0.1806,0.1809,0.1994,0.1996,0.1997,0.211,0.2112,0.2114,0.2147,0.2146,0.2146,0.2145,0.2268,0.2272,0.2277,0,0,0,0,0,0,0,0,0,0,0,0,0,0.1901,0.181,0.1994,0.2027,0.2031,0.211,0.2112,0.2114,0.2147,0.2146,0.2145,0.2144,0.2266,0.2272,0.2278,0.2333,0,0,0.2295,0.2298,0,0,0,0,0,0,0,0,0.1896,0.1908,0.2021,0.2025,0.203,0.2113,0.2091,0.2188,0.2147,0.2103,0.2145,0.2144,0.2218,0.2228,0.2252,0.2339,0.2344,0.2296,0.2299,0.2302,0.2304,0,0,0,0,0,0,0,0.1889,0.1903,0.204,0.2023,0.2028,0.2038,0.2051,0.2109,0.2165,0.2107,0.211,0.2123,0.222,0.2246,0.2255,0.2346,0.2296,0.2301,0.2304,0.2307,0.2485,0.2486,0,0,0,0,0,0,0.1876,0.1898,0.2037,0.2044,0.1959,0.2042,0.2056,0.2088,0.2164,0.2175,0.2124,0.2124,0.2237,0.2248,0.226,0.2331,0.2302,0.2307,0.2311,0.2484,0.2485,0.2487,0,0,0,0,0,0,0.1872,0.1888,0.2032,0.1972,0.1991,0.2046,0.2081,0.209,0.2116,0.2177,0.2187,0.2139,0.2236,0.2251,0.2314,0.2335,0.231,0.2315,0.2482,0.2484,0.2486,0.2472,0,0,0,0,0,0,0.1866,0.1887,0.1907,0.1972,0.1994,0.2083,0.2083,0.2093,0.2126,0.2127,0.2194,0.2205,0.2237,0.2305,0.232,0.2343,0.232,0.2481,0.2483,0.2485,0.2471,0.2473,0.2475,0,0,0,0,0,0.186,0.1899,0.1908,0.1924,0.202,0.2084,0.2097,0.2132,0.2127,0.2149,0.2188,0.2203,0.233,0.2312,0.2328,0.2353,0.248,0.2483,0.2485,0.247,0.2472,0.2475,0,0,0,0,0,0,0.1837,0.1908,0.1919,0.198,0.2025,0.209,0.2118,0.2134,0.2183,0.2183,0.2225,0.224,0.2301,0.2333,0.2311,0.2411,0.2406,0.2412,0.2388,0.2391,0.2393,0.2385,0.2325,0,0,0,0,0,0.1838,0.1883,0.1944,0.1992,0.2014,0.2062,0.2091,0.2114,0.2164,0.2184,0.2228,0.2277,0.2328,0.2361,0.2412,0.2475,0.2491,0.2501,0.2503,0.2504,0.2509,0.2547,0.2552,0.2496,0.2496,0.2496,0,0,0.1843,0.1888,0.1913,0.1988,0.2026,0.2074,0.2078,0.2128,0.2163,0.2192,0.2254,0.2288,0.2346,0.2409,0.2439,0.2438,0.2528,0.2508,0.2508,0.2513,0.255,0.2556,0.256,0.2498,0.2497,0.2497,0,0,0.1876,0.1913,0.1958,0.1996,0.2053,0.2085,0.2095,0.2158,0.2181,0.2243,0.2266,0.231,0.2397,0.2438,0.247,0.2518,0.2534,0.2534,0.2545,0.2581,0.2585,0.259,0.2608,0.2614,0.2538,0.2538,0.2538,0,0.1875,0.1945,0.1979,0.2028,0.2061,0.2087,0.2134,0.217,0.2241,0.2264,0.2261,0.2372,0.2412,0.2486,0.2498,0.2523,0.2538,0.2527,0.2582,0.2586,0.2591,0.2609,0.2616,0.2538,0.2538,0.2538,0.2538,0,0.1942,0.199,0.202,0.2087,0.2123,0.217,0.2213,0.2246,0.2266,0.2298,0.2363,0.2412,0.2474,0.2493,0.2513,0.2571,0.2568,0.2573,0.2568,0.2595,0.2613,0.262,0.2538,0.2538,0.2538,0.2538,0,0,0.1964,0.2049,0.2059,0.209,0.2156,0.2195,0.2244,0.2303,0.2331,0.2379,0.2423,0.2496,0.2501,0.2537,0.2562,0.2593,0.263,0.2595,0.2597,0.2601,0.2699,0.2695,0.2703,0.2641,0.2642,0.2643,0.2694,0,0.2006,0.2093,0.2126,0.2198,0.2244,0.227,0.2313,0.2359,0.239,0.2436,0.2471,0.2523,0.2525,0.2547,0.2579,0.2619,0.2651,0.2616,0.2684,0.2686,0.2669,0.2712,0.2709,0.2754,0.2701,0.2702,0.2703,0,0.2066,0.2114,0.2191,0.2251,0.2272,0.2309,0.2367,0.2409,0.2461,0.2483,0.2523,0.2546,0.26,0.2591,0.2668,0.2643,0.2673,0.2697,0.2699,0.2708,0.2697,0.2723,0.277,0.2777,0.2715,0.2714,0.2713,0,0.2076,0.216,0.2217,0.2243,0.2314,0.234,0.2372,0.2423,0.2457,0.2507,0.253,0.2586,0.2617,0.2661,0.27,0.2689,0.2773,0.2767,0.2794,0.2793,0.2812,0.281,0.2865,0.2828,0.2828,0.2828,0.2828,0,0.2121,0.2167,0.2222,0.2257,0.231,0.2348,0.24,0.2433,0.2479,0.2523,0.2549,0.2589,0.2637,0.2684,0.2714,0.2774,0.2788,0.2808,0.2816,0.2806,0.2804,0.2827,0.2826,0.283,0.283,0.2829,0.2829,0,0.2141,0.218,0.2244,0.2306,0.2323,0.2359,0.2413,0.2449,0.2482,0.2537,0.2552,0.2604,0.2661,0.2703,0.2777,0.2797,0.2862,0.2869,0.2843,0.2847,0.2873,0.287,0.2945,0.2958,0.2911,0.2912,0.2912,0,0.2168,0.2204,0.2269,0.2299,0.233,0.2378,0.2413,0.2451,0.2486,0.2549,0.2578,0.2636,0.2685,0.2775,0.2821,0.2878,0.2888,0.291,0.2897,0.2887,0.289,0.2888,0.2893,0.2912,0.2913,0.2913,0.2913,0,0.2211,0.2228,0.2275,0.233,0.2369,0.2415,0.246,0.2484,0.2531,0.2569,0.2627,0.2665,0.274,0.2798,0.286,0.2894,0.2912,0.2917,0.2926,0.2918,0.2902,0.2912,0.285,0.2915,0.2915,0.2915,0.2915,0.2915,0.2236,0.227,0.2321,0.2373,0.2412,0.2454,0.2491,0.2528,0.2576,0.2639,0.2659,0.272,0.2773,0.2857,0.2892,0.2941,0.2941,0.2954,0.2958,0.2961,0.2961,0.2893,0.2952,0.2952,0.2952,0.2952,0.2952,0,0.2282,0.2316,0.2363,0.2426,0.2468,0.2479,0.2531,0.2565,0.2617,0.2664,0.2712,0.2779,0.2835,0.2885,0.2945,0.2974,0.2984,0.2989,0.2988,0.2996,0.2957,0.2944,0.298,0.298,0.298,0.298,0.298,0.298,0.231,0.2368,0.2392,0.2469,0.2504,0.2562,0.259,0.263,0.2668,0.2741,0.2788,0.2819,0.2869,0.2932,0.2985,0.2998,0.302,0.3022,0.3038,0.3001,0.2998,0.2995,0.2983,0.3026,0.3026,0.3073,0.3073,0.3073]},{"header":{"parameterUnit":"m.s-1","parameterCategory":1,"la1":30.2991,"la2":30.254,"lo1":-89.0895,"lo2":-89.0444,"dx":0.0017,"dy":0.0017,"nx":28,"ny":28,"refTime":"2022-12-02T09:00:00:Z","depth":0,"parameterNumber":3,"parameterNumberName":"V-component_of_WINDS"},"data":[0,0,0,0,0,0,0,0,0,0,0,0,0,0,0,0,0,0,0,0,0,0,0,0,0,0,0,0,0,0,0,0,0,0,0,0,0,0,0,0,0,0,0,0,0,0,0,0,0,0,0,0,0,0,0,0,0,0,0.404,0.404,0,0.3999,0.3999,0.3998,0.3983,0.3983,0.3983,0.3983,0.3939,0.3937,0.3936,0,0,0,0,0,0,0,0,0,0,0,0,0,0.4101,0.41,0.404,0.404,0.4039,0.3999,0.3999,0.3998,0.3983,0.3983,0.3983,0.3983,0.3939,0.3938,0.3936,0,0,0,0,0,0,0,0,0,0,0,0,0,0.4069,0.41,0.404,0.4026,0.4025,0.4,0.3999,0.3998,0.3983,0.3983,0.3983,0.3983,0.394,0.3938,0.3936,0.392,0,0,0.393,0.3929,0,0,0,0,0,0,0,0,0.4071,0.4067,0.4029,0.4027,0.4026,0.3996,0.4004,0.3972,0.3983,0.3999,0.3983,0.3983,0.3958,0.3954,0.3946,0.3918,0.3916,0.393,0.3929,0.3928,0.3927,0,0,0,0,0,0,0,0.4073,0.4068,0.4024,0.4028,0.4026,0.4021,0.4017,0.3998,0.3977,0.3997,0.3996,0.3992,0.3957,0.3948,0.3945,0.3916,0.393,0.3928,0.3927,0.3926,0.3872,0.3872,0,0,0,0,0,0,0.4078,0.407,0.4025,0.4023,0.4049,0.402,0.4015,0.4005,0.3978,0.3974,0.3991,0.3991,0.3951,0.3947,0.3943,0.3923,0.3928,0.3926,0.3925,0.3872,0.3872,0.3872,0,0,0,0,0,0,0.4079,0.4074,0.4027,0.4046,0.404,0.4019,0.4008,0.4005,0.3996,0.3973,0.3969,0.3987,0.3951,0.3946,0.3926,0.3921,0.3925,0.3923,0.3873,0.3872,0.3872,0.3883,0,0,0,0,0,0,0.4081,0.4075,0.4069,0.4046,0.4039,0.4011,0.4008,0.4004,0.3993,0.3992,0.3968,0.3964,0.3951,0.3929,0.3924,0.3919,0.3922,0.3873,0.3873,0.3872,0.3883,0.3883,0.3883,0,0,0,0,0,0.4083,0.4073,0.4069,0.4064,0.4032,0.4011,0.4007,0.3993,0.3993,0.3987,0.3972,0.3965,0.3923,0.3927,0.3922,0.3915,0.3873,0.3873,0.3872,0.3883,0.3883,0.3883,0,0,0,0,0,0,0.4096,0.407,0.4065,0.4047,0.4032,0.4009,0.4001,0.3993,0.3977,0.3976,0.3959,0.3954,0.3935,0.3923,0.3929,0.3898,0.3897,0.3896,0.3907,0.3907,0.3907,0.391,0.392,0,0,0,0,0,0.4096,0.4083,0.4061,0.4047,0.404,0.4021,0.4012,0.4003,0.3985,0.3978,0.3962,0.3945,0.3927,0.3916,0.3899,0.3881,0.3875,0.3873,0.3873,0.3874,0.3872,0.3861,0.386,0.387,0.387,0.387,0,0,0.4097,0.4082,0.4074,0.4049,0.4036,0.4021,0.4016,0.4001,0.3989,0.3975,0.3956,0.3944,0.3923,0.3904,0.3894,0.3893,0.3868,0.3873,0.3873,0.3872,0.386,0.386,0.3859,0.3869,0.3869,0.387,0,0,0.4092,0.4079,0.4067,0.4054,0.4034,0.4022,0.4019,0.3996,0.3988,0.3968,0.3958,0.3943,0.3914,0.39,0.3889,0.3878,0.387,0.3872,0.3873,0.3862,0.3861,0.386,0.3856,0.3855,0.3871,0.3871,0.3871,0,0.4096,0.4075,0.4061,0.4046,0.4035,0.4023,0.4009,0.3997,0.3972,0.3965,0.3964,0.3927,0.3912,0.3889,0.3886,0.3878,0.3873,0.3875,0.3863,0.3862,0.3861,0.3857,0.3855,0.3872,0.3871,0.3871,0.3871,0,0.408,0.4065,0.4057,0.4035,0.4023,0.4009,0.3992,0.3981,0.3973,0.3961,0.394,0.3922,0.3901,0.3895,0.3886,0.387,0.387,0.3866,0.3865,0.386,0.3856,0.3855,0.3872,0.3872,0.3872,0.3872,0,0,0.4082,0.4052,0.4049,0.4039,0.4016,0.4004,0.3988,0.3969,0.396,0.3943,0.393,0.3905,0.3901,0.3889,0.3878,0.3868,0.3861,0.3865,0.3865,0.3865,0.3842,0.3845,0.3844,0.3855,0.3855,0.3855,0.3844,0,0.4074,0.4048,0.4035,0.4014,0.4,0.3987,0.3974,0.3958,0.3946,0.3931,0.3917,0.3901,0.3897,0.3889,0.3879,0.3864,0.3856,0.3864,0.3842,0.3842,0.3848,0.3842,0.3845,0.3836,0.3842,0.3842,0.3841,0,0.4061,0.4045,0.4023,0.4002,0.3996,0.3984,0.3965,0.3951,0.3932,0.3924,0.391,0.39,0.3882,0.3882,0.3858,0.3864,0.3854,0.3845,0.3844,0.3841,0.3842,0.3839,0.3833,0.3831,0.3839,0.3839,0.3839,0,0.4065,0.4038,0.4021,0.4013,0.3987,0.3979,0.3968,0.395,0.3938,0.3921,0.3914,0.3894,0.3883,0.3868,0.3852,0.3854,0.3829,0.3828,0.3822,0.3822,0.3817,0.3818,0.3809,0.381,0.3811,0.3811,0.3811,0,0.4057,0.4044,0.4023,0.4012,0.3997,0.3982,0.3967,0.3954,0.3938,0.3924,0.3912,0.3899,0.3879,0.3864,0.3851,0.3833,0.3828,0.382,0.3817,0.3822,0.3823,0.3815,0.3815,0.381,0.381,0.381,0.381,0,0.4059,0.4044,0.4025,0.4003,0.3997,0.3987,0.3967,0.3956,0.3943,0.3926,0.3921,0.3901,0.3882,0.3865,0.3839,0.3831,0.3812,0.3808,0.3819,0.3817,0.3812,0.3813,0.3798,0.3795,0.3799,0.3799,0.3799,0,0.4055,0.4045,0.4022,0.4013,0.4002,0.3987,0.3976,0.3959,0.3948,0.3926,0.3917,0.3898,0.3881,0.3851,0.3834,0.3814,0.3809,0.3806,0.3806,0.3811,0.3809,0.381,0.3809,0.3806,0.3806,0.3806,0.3806,0,0.4051,0.4044,0.4029,0.4011,0.3998,0.3983,0.3967,0.396,0.3941,0.3928,0.391,0.3897,0.3871,0.3852,0.383,0.3817,0.3808,0.3806,0.3803,0.3808,0.3815,0.3811,0.3819,0.3806,0.3806,0.3806,0.3806,0.3806,0.4049,0.404,0.4022,0.4006,0.3992,0.3978,0.3967,0.3953,0.3937,0.3916,0.3907,0.3888,0.3868,0.3838,0.3825,0.3809,0.3808,0.3804,0.3803,0.3803,0.3803,0.3817,0.3805,0.3805,0.3805,0.3805,0.3805,0,0.4044,0.4032,0.4017,0.3996,0.3983,0.3976,0.3959,0.3948,0.3931,0.3914,0.3899,0.3877,0.3858,0.3838,0.3818,0.3809,0.3804,0.3804,0.3804,0.3802,0.3806,0.3811,0.3808,0.3808,0.3808,0.3808,0.3808,0.3808,0.404,0.4023,0.4014,0.3991,0.3978,0.396,0.3951,0.3937,0.3924,0.39,0.3884,0.3872,0.3854,0.3832,0.3814,0.3809,0.3802,0.3803,0.3796,0.3801,0.3801,0.3801,0.3805,0.3802,0.3802,0.3793,0.3793,0.3793]}]]